Regional Weather Roundup
Issued by NWS

Home | Current Version | Previous Version | Graphics & Text | Print | Product List | Glossary On
Versions: 1 2 3 4 5 6 7 8 9 10 11 12 13 14 15 16 17 18 19 20 21 22 23 24 25 26 27 28 29 30 31 32 33 34 35 36 37 38 39 40 41 42 43 44 45 46 47 48 49 50
000
ASUS44 KMEG 030610
RWRTN
TENNESSEE HOURLY STATE WEATHER ROUNDUP
NATIONAL WEATHER SERVICE MEMPHIS TN
1200 AM CST TUE MAR 03 2015

TNZ002-004-019-021-049-052-054-088>092-030700-
WEST TENNESSEE

CITY           SKY/WX    TMP DP  RH WIND       PRES   REMARKS
MEMPHIS INTL   DRIZZLE   43  39  86 E3        30.20F FOG
NWS MEMPHIS      N/A     40 N/A N/A MISG        N/A
JACKSON        CLOUDY    46  36  68 CALM      30.21F
DYERSBURG      CLOUDY    37  19  48 CALM      30.23F
UNION CITY     CLOUDY    36  30  80 CALM      30.20F
PARIS          CLOUDY    37  27  65 E3        30.20F
LEXINGTON      CLOUDY    45  32  61 CALM      30.19F
SAVANNAH       CLOUDY    45  39  81 SE5       30.20F
$$

TNZ008-025-027-028-033-062-065-066-030700-
NORTH MIDDLE TENNESSEE

CITY           SKY/WX    TMP DP  RH WIND       PRES   REMARKS
NASHVILLE      MOCLDY    43  31  62 CALM      30.21F
CLARKSVILLE    CLOUDY    39  27  62 SE5       30.22F
SMYRNA         MOCLDY    41  32  70 CALM      30.22F
COOKEVILLE       N/A     43  34  70 CALM      30.18F
CROSSVILLE     CLOUDY    42  29  59 SE6       30.20F
$$

TNZ061-075-076-078-094-096-097-030700-
SOUTH MIDDLE TENNESSEE

CITY           SKY/WX    TMP DP  RH WIND       PRES   REMARKS
FAYETTEVILLE   CLOUDY    41  37  87 CALM        N/A
TULLAHOMA      MOCLDY    43  36  75 CALM      30.18F
WINCHESTER     MOCLDY    46  39  76 SE8       30.19F
MCMINNVILLE    PTCLDY    43  37  81 NE3       30.20S
COLUMBIA       CLOUDY    45  39  81 CALM      30.19F
SHELBYVILLE    PTCLDY    41  37  87 CALM      30.20F
$$

TNZ017-018-042-046-047-030700-
NORTHEAST TENNESSEE

CITY           SKY/WX    TMP DP  RH WIND       PRES   REMARKS
TRI CITIES     CLOUDY    34  29  82 CALM      30.25F
ELIZABETHTON   CLEAR     32  28  86 CALM      30.25F
$$

TNZ012-013-036-069-073-074-030700-
CENTRAL EAST TENNESSEE

CITY           SKY/WX    TMP DP  RH WIND       PRES   REMARKS
KNOXVILLE      CLOUDY    41  37  86 CALM      30.25F
OAK RIDGE      CLOUDY    41  32  70 CALM      30.26F
GATLINBURG     CLOUDY    37  36  93 CALM      30.24F
MORRISTOWN     MOCLDY    37  36  93 NE3       30.23F
$$

TNZ083-085-099-030700-
SOUTHEAST TENNESSEE

CITY           SKY/WX    TMP DP  RH WIND       PRES   REMARKS
CHATTANOOGA    CLOUDY    46  38  73 N3        30.24F
$$

SKY/WX REPORTED AS FAIR MEANS FEW OR NO CLOUDS BELOW
12 THOUSAND FEET.



USA.gov is the U.S. government's official web portal to all federal, state and local government web resources and services.